Regional Weather Roundup
Issued by NWS

Home | Current Version | Previous Version | Graphics & Text | Print | Product List | Glossary On
Versions: 1 2 3 4 5 6 7 8 9 10 11 12 13 14 15 16 17 18 19 20 21 22 23 24 25 26 27 28 29 30 31 32 33 34 35 36 37 38 39 40 41 42 43 44 45 46 47 48 49 50
000
ASUS43 KDTX 110901
RWRMI
MICHIGAN HOURLY REGIONAL WEATHER ROUNDUP
NATIONAL WEATHER SERVICE DETROIT/PONTIAC MI
400 AM EST SUN DEC 11 2016

NOTE: "FAIR" INDICATES FEW OR NO CLOUDS BELOW 12,000 FEET WITH NO
SIGNIFICANT WEATHER AND/OR OBSTRUCTION TO VISIBILITY.

MIZ047>049-052>055-059>063-066>070-074>076-081>083-111000-
SOUTHEAST LOWER MICHIGAN

CITY           SKY/WX    TMP DP  RH WIND       PRES   REMARKS
ADRIAN         LGT SNOW  22  22 100 S8        30.34F FOG     WCI  12
ALMA           LGT SNOW  22  21  94 SE3       30.30F
ANN ARBOR      LGT SNOW  23  21  92 SE3       30.32F FOG
BAD AXE        FLURRIES  21  14  76 S5        30.33F WCI  14
CARO           LGT SNOW  21  19  93 SE3       30.32F
DETROIT CITY   LGT SNOW  23  21  92 S5        30.36F FOG     WCI  17
DETROIT        LGT SNOW  23  21  92 SE5       30.36F FOG     WCI  17
FLINT          LGT SNOW  22  19  89 S6        30.32F FOG     WCI  14
GROSSE ILE     LGT SNOW  24  22  89 SW5       30.35F WCI  19
HILLSDALE      LGT SNOW  21  19  93 SE6       30.28F WCI  14
HOWELL         LGT SNOW  22  20  91 S5        30.30F WCI  16

CITY           SKY/WX    TMP DP  RH WIND       PRES   REMARKS
JACKSON        LGT SNOW  22  19  89 S6        30.30F FOG     WCI  14
LAMBERTVILLE   LGT SNOW  26  23  89 S3        30.35F
LANSING        LGT SNOW  22  18  85 S9        30.30F FOG     WCI  12
LAPEER         NOT AVBL
MASON          LGT SNOW  22  20  93 S6        30.30F WCI  14
MONROE         LGT SNOW  24  23  94 CALM      30.35F
MT. CLEMENS    FLURRIES  23  20  89 SE3       30.33F
PONTIAC        LGT SNOW  22  18  85 S6        30.30F FOG     WCI  14
PORT HOPE        N/A     21  13  71 S5        30.33S WCI  15
PORT HURON     CLOUDY    23  19  86 CALM      30.36F
TRI CITIES     LGT SNOW  22  20  92 SE6       30.32F VSB 1   WCI  14
MIDLAND        LGT SNOW  22  19  87 E3        30.31F
TROY           LGT SNOW  24  20  85 S5        30.35F WCI  18
SAGINAW HB     LGT SNOW  23  21  93 SE3       30.31F
$$
MIZ043>046-050>051-056>058-064>065-071>073-077>080-111000-
SOUTHWEST LOWER MICHIGAN

CITY           SKY/WX    TMP DP  RH WIND       PRES   REMARKS
BATTLE CREEK   LGT SNOW  23  20  88 S8        30.28F FOG     WCI  14
BENTON HARBOR  CLOUDY    24  20  84 SE8       30.26F FOG     WCI  15
BIG RAPIDS     LGT SNOW  21  18  91 SE5       30.25S WCI  14
COLDWATER      LGT SNOW  23  22  94 SE5       30.29F WCI  17
FREMONT        LGT SNOW  22  20  93 SE6       30.24F WCI  14
HOLLAND        LGT SNOW  23  20  88 SE10      30.26F FOG     WCI  12
GRAND RAPIDS   LGT SNOW  22  19  89 S9        30.28S FOG     WCI  12
IONIA          LGT SNOW  22  19  91 S7        30.28F WCI  13
KALAMAZOO      LGT SNOW  23  19  85 SE7       30.27F FOG     WCI  15
LUDINGTON      LGT SNOW  20  19  94 E6        30.24F WCI  13
MARSHALL       LGT SNOW  22  20  93 SE3       30.29S
MOUNT PLEASANT LGT SNOW  21  19  93 E5        30.28F WCI  15
MUSKEGON       LGT SNOW  24  21  88 SE13      30.23F FOG     WCI  12
SOUTH HAVEN    LGT SNOW  23  21  93 SE6       30.26F WCI  16
$$
MIZ016>042-111000-
NORTHERN LOWER MICHIGAN

CITY           SKY/WX    TMP DP  RH WIND       PRES   REMARKS
ALPENA         CLOUDY    15   9  76 SW5       30.30F WCI   8
BELLAIRE       CLOUDY    19  16  88 S6        30.29F FOG     WCI  10
CADILLAC       LGT SNOW  17  14  87 E3        30.23S
CHARLEVOIX     CLOUDY    20  15  81 S7        30.28F WCI  12
FRANKFORT      LGT SNOW  20  18  91 SE7       30.25F WCI  11
GAYLORD        CLOUDY    15   9  76 S8        30.23F WCI   4
GRAYLING       LGT SNOW  17  14  86 S6        30.26F WCI   9
HARBOR SPRINGS CLOUDY    20  13  76 S5        30.25F WCI  13
HOUGHTON LAKE  LGT SNOW  17  13  84 SE3       30.27F FOG
MANISTEE       LGT SNOW  19  17  92 E6        30.26F FOG     WCI  11
OSCODA         CLOUDY    18  13  82 MISG      30.31F
PELLSTON       CLOUDY    15  10  80 NE3       30.25F
ROGERS CITY    CLOUDY    18  11  74 SW8       30.29F WCI   7
TRAVERSE CITY  LGT SNOW  20  15  81 CALM      30.27F
$$
MIZ007>008-015-111000-
EASTERN UPPER MICHIGAN

CITY           SKY/WX    TMP DP  RH WIND       PRES   REMARKS
KINROSS        CLOUDY    13  10  88 CALM      30.26F
MACKINAC ISLAN LGT SNOW  21  18  88 CALM      30.25F
NEWBERRY       CLOUDY    12   6  76 W5        30.23F WCI   4
S. S. MARIE    CLOUDY    10   6  84 CALM      30.25F
MUNISING         N/A      8   2  76 S6        30.24F WCI  -2
$$
MIZ004>006-011>014-085-111000-
CENTRAL UPPER MICHIGAN

CITY           SKY/WX    TMP DP  RH WIND       PRES   REMARKS
MANISTIQUE     CLOUDY    10   4  77 CALM      30.25F
ESCANABA       CLOUDY    12   8  84 NW3       30.26F
MENOMINEE      LGT SNOW  14  11  87 N3        30.26F FOG
SAWYER-GWINN   CLOUDY     3   0  84 CALM      30.19F
$$
MIZ001>003-009>011-084-111000-
WESTERN UPPER MICHIGAN

CITY           SKY/WX    TMP DP  RH WIND       PRES   REMARKS
IRON MOUNTAIN  CLOUDY    10   3  73 CALM      30.19F
HOUGHTON       CLOUDY     7  -2  66 NW5       30.18F WCI  -2
COPPER HARBOR    N/A     12   6  77 SW6       30.22F WCI   3
IRONWOOD       CLOUDY     0  -3  87 NE5       30.18F WCI -10
$$

ABBREVIATIONS USED IN REMARKS
   TC - TEMPERATURE IN CELSIUS
  WCI - WIND CHILL INDEX
   HX - HEAT INDEX
  VSB - VISIBILITY




USA.gov is the U.S. government's official web portal to all federal, state and local government web resources and services.